This is the latest recevied weather packets stored in our database for station/object N0TKN. If no packets are shown the sender has not sent any weather packets the latest 10 day(s).
| Time | Temp. | Humidity | Pressure | Rain* | Wind** | Luminosity | Snow |
|---|---|---|---|---|---|---|---|
| 1777622717 | 8.89° C | 85% | 1018.1 hPa | 0 mm | - | 0 W/m² | - |
| 1777622118 | 9.44° C | 79% | 1018 hPa | 0 mm | - | 0 W/m² | - |
| 1777621518 | 9.44° C | 77% | 1018 hPa | 0 mm | - | 0 W/m² | - |
| 1777620918 | 9.44° C | 80% | 1018.2 hPa | 0 mm | - | 0 W/m² | - |
| 1777620318 | 9.44° C | 80% | 1018.2 hPa | 0 mm | - | 0 W/m² | - |
| 1777619718 | 9.44° C | 78% | 1018.1 hPa | 0 mm | - | 0 W/m² | - |
| 1777619118 | 9.44° C | 78% | 1018.2 hPa | 0 mm | - | 0 W/m² | - |
| 1777618516 | 10° C | 77% | 1018.3 hPa | 0 mm | - | 0 W/m² | - |
| 1777617916 | 10° C | 77% | 1018.4 hPa | 0 mm | - | 0 W/m² | - |
| 1777617316 | 10° C | 75% | 1018.4 hPa | 0 mm | - | 0 W/m² | - |
| 1777616716 | 10.56° C | 75% | 1018.4 hPa | 0 mm | - | 0 W/m² | - |
| 1777616116 | 10.56° C | 76% | 1018.4 hPa | 0 mm | - | 0 W/m² | - |
| 1777615516 | 10.56° C | 76% | 1018.4 hPa | 0 mm | - | 0 W/m² | - |
| 1777614916 | 11.11° C | 76% | 1018.2 hPa | 0 mm | - | 0 W/m² | - |
| 1777614317 | 11.11° C | 78% | 1018.1 hPa | 0 mm | - | 0 W/m² | - |
| 1777613717 | 11.67° C | 80% | 1018 hPa | 0 mm | - | 0 W/m² | - |
| 1777613117 | 11.67° C | 79% | 1017.9 hPa | 0 mm | - | 0 W/m² | - |
| 1777612517 | 11.67° C | 81% | 1017.7 hPa | 0 mm | - | 0 W/m² | - |
| 1777611917 | 11.67° C | 82% | 1017.4 hPa | 0 mm | - | 0 W/m² | - |
| 1777611317 | 11.67° C | 82% | 1017.2 hPa | 0 mm | - | 0 W/m² | - |
| 1777610718 | 12.22° C | 83% | 1017.1 hPa | 0 mm | - | 0 W/m² | - |
| 1777610118 | 12.22° C | 84% | 1017.2 hPa | 0 mm | - | 0 W/m² | - |
| 1777609518 | 12.22° C | 86% | 1017.1 hPa | 0 mm | - | 0 W/m² | - |
| 1777608918 | 12.22° C | 86% | 1017.2 hPa | 0 mm | - | 0 W/m² | - |
| 1777608318 | 12.22° C | 83% | 1017.2 hPa | 0 mm | - | 0 W/m² | - |
* Rain latest hour (hover to see other rain measurements)
** Current wind speed in m/s (hover to see current wind gust speed)